Flag for Saudi Arabia Weather past 2 weeks in Makkah, Saudi Arabia

Now
93 °F

Sunny.


Feels Like: 96 °F
Forecast: 79 / 107 °F
Wind: 2 mph from Northwest

Location: Mecca Airport

Current Time: Sep 17, 2014 at 9:45:26 AM

Latest Report: Sep 17, 2014 at 9:00 AM


Visibility: 10 mi

Pressure: 29.77 "Hg

Humidity: 41%

Dew point: 66 °F

Location of MakkahLocation

Historic Weather in Makkah — Graph

°F

Makkah temperature yesterday

Maximum temperature yesterday: 108 °F (at 1:00 PM)
Minimum temperature yesterday: 86 °F (at 4:00 AM)
Average temperature yesterday: 95 °F

Past Weeks' High & Low Weather Summary

 TemperatureHumidityPressure
High111 °F (Sep 12, 3:00 PM)84% (Sep 6, 4:00 AM)29.83 "Hg (Sep 6, 4:00 AM)
Low84 °F (Sep 6, 4:00 AM)19% (Sep 16, 1:00 PM)29.53 "Hg (Sep 3, 3:00 PM)
Average95 °F44%29.71 "Hg
* Reported Sep 2 8:00 AM — Sep 17 8:00 AM, Makkah, Weather by CustomWeather, © 2014

Note: Actual official high and low records may vary slightly from our data, if they occured in-between our weather recording intervals... More about our weather records

Advertising

Makkah weather history for previous 24 hours

 ConditionsComfort  
Time TempWeatherWind HumidityBarometerVisibility
8:00 AM
Sep 17
90 °FSunny.1 mph41%29.77 "Hg10 mi
7:00 AM88 °FSunny.No wind46%29.74 "Hg10 mi
6:00 AM88 °FClear.No wind43%29.74 "Hg10 mi
5:00 AM88 °FClear.No wind46%29.74 "Hg10 mi
4:00 AM90 °FClear.No wind41%29.74 "Hg10 mi
3:00 AM90 °FClear.No wind41%29.74 "Hg10 mi
2:00 AM90 °FClear.No wind41%29.74 "Hg10 mi
1:00 AM91 °FClear.No wind36%29.77 "Hg10 mi
12:00 AM91 °FClear.No wind34%29.77 "Hg10 mi
11:00 PM
Sep 16
93 °FClear.No wind30%29.77 "Hg10 mi
10:00 PM93 °FClear.2 mph32%29.77 "Hg10 mi
9:00 PM95 °FClear.2 mph30%29.77 "Hg10 mi
8:00 PM95 °FClear.2 mph26%29.74 "Hg10 mi
7:00 PM97 °FClear.2 mph28%29.74 "Hg10 mi
6:00 PM99 °FSunny.2 mph31%29.71 "Hg10 mi
5:00 PM102 °FSunny.5 mph27%29.71 "Hg10 mi
4:00 PM108 °FSunny.5 mph26%29.71 "Hg10 mi
3:00 PM108 °FSunny.5 mph23%29.71 "Hg10 mi
2:00 PM108 °FSunny.2 mph22%29.74 "Hg10 mi
1:00 PM108 °FSunny.2 mph19%29.74 "Hg10 mi
12:00 PM106 °FSunny.5 mph23%29.77 "Hg10 mi
11:00 AM102 °FSunny.2 mph24%29.77 "Hg10 mi
10:00 AM97 °FSunny.2 mph28%29.77 "Hg10 mi
Weather by CustomWeather, © 2014

See weather overviewHow to use our weather pages